ZL2ARL Weather Reports


Display with metric or nautical units.
time (UTC)temp
F
wind
direction
speed
MPH
gust
MPH
rain 1hr
in
rain 24hr
in
rain mn
in
humidity
%
barometer
mb
20260505054053 51 351 13.0 21.0 0.00 0.00 0.00 79 1030.9
20260505053028 52 357 13.0 23.0 0.00 0.00 0.00 78 1031.0
20260505052023 52 358 15.0 22.0 0.00 0.00 0.00 78 1031.0
20260505051018 52 357 13.0 23.0 0.00 0.00 0.00 77 1031.2
20260505041029 53 351 16.0 25.0 0.00 0.00 0.00 75 1031.2
20260505040024 53 354 17.0 27.0 0.00 0.00 0.00 74 1031.2
20260505035019 53 344 15.0 24.0 0.00 0.00 0.00 73 1031.2
20260505034034 53 342 14.0 27.0 0.00 0.00 0.00 74 1031.2
20260505033029 54 341 15.0 29.0 0.00 0.00 0.00 72 1031.3
20260505032024 55 336 16.0 30.0 0.00 0.00 0.00 70 1031.4
20260505031019 56 358 15.0 23.0 0.00 0.00 0.00 69 1031.3
20260505030034 58 343 13.0 21.0 0.00 0.00 0.00 67 1031.3
20260505025029 57 335 16.0 26.0 0.00 0.00 0.00 67 1031.3
20260505024025 58 355 15.0 27.0 0.00 0.00 0.00 67 1031.3
20260505023019 58 326 17.0 30.0 0.00 0.00 0.00 66 1031.4
20260505022034 57 340 16.0 23.0 0.00 0.00 0.00 69 1031.3
20260505021050 56 334 21.0 34.0 0.00 0.00 0.00 69 1031.3
20260505020025 56 345 17.0 29.0 0.00 0.00 0.00 70 1031.4
20260505015020 56 349 14.0 25.0 0.00 0.00 0.00 70 1031.5
20260505014035 56 350 19.0 30.0 0.00 0.00 0.00 69 1031.5
20260505013030 56 335 18.0 29.0 0.00 0.00 0.00 69 1031.8
20260505012024 56 347 19.0 29.0 0.00 0.00 0.00 69 1031.9
20260505011019 56 349 16.0 23.0 0.00 0.00 0.00 70 1032.1
20260505010035 56 344 18.0 30.0 0.00 0.00 0.00 70 1032.3
20260505005030 55 334 20.0 32.0 0.00 0.00 0.00 71 1032.5
20260505004025 56 346 16.0 23.0 0.00 0.00 0.00 71 1032.5
20260505003020 56 344 17.0 26.0 0.00 0.00 0.00 70 1032.8
20260505002035 55 339 16.0 23.0 0.00 0.00 0.00 72 1032.7
20260505001030 56 331 15.0 28.0 0.00 0.00 0.00 71 1032.8
20260505000025 55 333 16.0 32.0 0.00 0.00 0.00 71 1033.2
20260504235020 56 349 14.0 25.0 0.00 0.00 0.00 71 1033.1
20260504234035 55 350 18.0 28.0 0.00 0.00 0.00 72 1033.3
20260504233030 55 353 17.0 28.0 0.00 0.00 0.00 72 1033.4
20260504232026 55 346 17.0 25.0 0.00 0.00 0.00 71 1033.5
20260504231040 55 352 18.0 29.0 0.00 0.00 0.00 72 1033.5
20260504230016 55 2 15.0 24.0 0.00 0.00 0.00 72 1033.5
20260504225031 55 357 16.0 28.0 0.00 0.00 0.00 72 1033.7
20260504224025 54 360 15.0 27.0 0.00 0.00 0.00 72 1033.6
20260504223021 54 354 18.0 29.0 0.00 0.00 0.00 72 1033.6
20260504222016 54 352 13.0 21.0 0.00 0.00 0.00 73 1033.6
20260504221031 53 344 16.0 30.0 0.00 0.00 0.00 73 1033.6
20260504220026 53 347 14.0 27.0 0.00 0.00 0.00 73 1033.6
20260504215021 53 3 15.0 27.0 0.00 0.00 0.00 73 1033.6
20260504214016 53 347 16.0 26.0 0.00 0.00 0.00 74 1033.7
20260504213031 53 355 15.0 26.0 0.00 0.00 0.00 74 1033.7
20260504212026 53 347 16.0 24.0 0.00 0.00 0.00 74 1033.5
20260504211021 53 355 15.0 26.0 0.00 0.00 0.00 75 1033.6
20260504210016 53 340 16.0 28.0 0.00 0.00 0.00 75 1033.6
20260504205051 53 347 15.0 31.0 0.00 0.00 0.00 76 1033.7
20260504204026 53 348 14.0 26.0 0.00 0.00 0.00 76 1033.6
20260504203021 53 351 13.0 21.0 0.00 0.00 0.00 76 1033.5
20260504202016 53 349 16.0 25.0 0.00 0.00 0.00 76 1033.7
20260504201032 53 353 15.0 26.0 0.00 0.00 0.00 77 1033.6
20260504200027 53 355 17.0 26.0 0.00 0.00 0.00 77 1033.6
20260504195022 53 346 16.0 25.0 0.00 0.00 0.00 77 1033.5
20260504194037 52 358 14.0 23.0 0.00 0.00 0.00 77 1033.4
20260504193032 53 341 13.0 20.0 0.00 0.00 0.00 77 1033.4
20260504192027 53 352 14.0 24.0 0.00 0.00 0.00 76 1033.5
20260504191022 52 344 13.0 22.0 0.00 0.00 0.00 76 1033.4
20260504190017 52 329 15.0 27.0 0.00 0.00 0.00 77 1033.4
20260504185052 52 351 13.0 23.0 0.00 0.00 0.00 76 1033.4
20260504184027 52 345 13.0 22.0 0.00 0.00 0.00 74 1033.3
20260504183022 53 343 13.0 24.0 0.00 0.00 0.00 74 1033.3
20260504182018 53 347 14.0 29.0 0.00 0.00 0.00 75 1033.3
20260504181033 53 353 16.0 25.0 0.00 0.00 0.00 75 1033.3
20260504180028 53 352 17.0 26.0 0.00 0.00 0.00 74 1033.4
20260504175023 53 355 17.0 29.0 0.00 0.00 0.00 74 1033.4
20260504174038 53 348 15.0 24.0 0.00 0.00 0.00 74 1033.3
20260504173033 53 1 17.0 29.0 0.00 0.00 0.00 74 1033.2
20260504172028 53 358 16.0 27.0 0.00 0.00 0.00 74 1033.3
20260504171023 53 348 18.0 29.0 0.00 0.00 0.00 75 1033.2
20260504151044 53 348 14.0 24.0 0.00 0.00 0.00 76 1033.7
20260504141035 53 347 14.0 26.0 0.00 0.00 0.00 78 1034.0
20260504081018 53 1 13.0 24.0 0.00 0.00 0.00 78 1034.1